Time,TemperatureF,DewpointF,PressureIn,WindDirection,WindDirectionDegrees,WindSpeedMPH,WindSpeedGustMPH,Humidity,HourlyPrecipIn,Conditions,Clouds,dailyrainin,SoftwareType,DateUTC
2013-08-12 00:00:00,72.8,72.2,29.99,South,184,0.0,1.0,98,0.00,,,0.04,Wunderground v.1.15,2013-08-12 04:00:00,
2013-08-12 00:05:00,72.8,72.2,29.99,South,184,0.0,1.0,98,0.00,,,0.00,Wunderground v.1.15,2013-08-12 04:05:00,
2013-08-12 00:10:00,72.8,72.2,29.99,South,184,0.0,0.0,98,0.00,,,0.00,Wunderground v.1.15,2013-08-12 04:10:00,
2013-08-12 00:15:00,72.9,72.3,29.99,South,184,0.0,0.0,98,0.00,,,0.00,Wunderground v.1.15,2013-08-12 04:15:00,
2013-08-12 00:20:00,72.9,72.3,29.99,South,184,0.0,0.0,98,0.00,,,0.01,Wunderground v.1.15,2013-08-12 04:20:00,
2013-08-12 00:25:00,72.9,72.3,29.99,South,184,0.0,0.0,98,0.00,,,0.01,Wunderground v.1.15,2013-08-12 04:25:00,
2013-08-12 00:30:00,72.9,72.3,29.99,South,184,0.0,0.0,98,0.00,,,0.01,Wunderground v.1.15,2013-08-12 04:30:00,
2013-08-12 00:35:00,72.9,72.3,29.99,South,184,0.0,0.0,98,0.00,,,0.01,Wunderground v.1.15,2013-08-12 04:35:00,
2013-08-12 00:40:00,72.9,72.3,29.99,South,184,0.0,0.0,98,0.00,,,0.01,Wunderground v.1.15,2013-08-12 04:40:00,
2013-08-12 00:50:00,72.9,72.3,29.98,South,184,0.0,0.0,98,0.00,,,0.01,Wunderground v.1.15,2013-08-12 04:50:00,
2013-08-12 00:55:00,72.9,72.3,29.98,South,184,0.0,0.0,98,0.00,,,0.01,Wunderground v.1.15,2013-08-12 04:55:00,
2013-08-12 01:00:00,72.9,72.3,29.98,South,184,0.0,0.0,98,0.00,,,0.01,Wunderground v.1.15,2013-08-12 05:00:00,
2013-08-12 01:10:00,72.8,72.2,29.98,South,184,0.0,0.0,98,0.00,,,0.01,Wunderground v.1.15,2013-08-12 05:10:00,
2013-08-12 01:15:00,72.8,72.2,29.98,South,184,0.0,0.0,98,0.00,,,0.01,Wunderground v.1.15,2013-08-12 05:15:00,
2013-08-12 01:20:00,72.7,72.1,29.98,South,184,0.0,0.0,98,0.00,,,0.01,Wunderground v.1.15,2013-08-12 05:20:00,
2013-08-12 01:30:00,72.7,72.1,29.97,South,184,0.0,0.0,98,0.00,,,0.01,Wunderground v.1.15,2013-08-12 05:30:00,
2013-08-12 01:35:00,72.6,72.0,29.97,South,184,0.0,0.0,98,0.00,,,0.01,Wunderground v.1.15,2013-08-12 05:35:00,
2013-08-12 01:40:00,72.6,72.0,29.97,South,184,0.0,0.0,98,0.00,,,0.01,Wunderground v.1.15,2013-08-12 05:40:00,
2013-08-12 01:45:00,72.7,72.1,29.96,South,184,0.0,0.0,98,0.00,,,0.01,Wunderground v.1.15,2013-08-12 05:45:00,
2013-08-12 01:50:00,72.6,72.3,29.96,South,184,0.0,0.0,99,0.00,,,0.01,Wunderground v.1.15,2013-08-12 05:50:00,
2013-08-12 02:00:00,72.6,72.3,29.96,South,184,0.0,0.0,99,0.00,,,0.01,Wunderground v.1.15,2013-08-12 06:00:00,
2013-08-12 02:05:00,72.6,72.3,29.96,South,184,0.0,0.0,99,0.00,,,0.01,Wunderground v.1.15,2013-08-12 06:05:00,
2013-08-12 02:10:00,72.6,72.3,29.96,South,184,0.0,0.0,99,0.00,,,0.01,Wunderground v.1.15,2013-08-12 06:10:00,
2013-08-12 02:20:00,72.6,72.3,29.95,South,184,0.0,0.0,99,0.00,,,0.01,Wunderground v.1.15,2013-08-12 06:20:00,
2013-08-12 02:25:00,72.6,72.3,29.95,South,184,0.0,0.0,99,0.00,,,0.01,Wunderground v.1.15,2013-08-12 06:25:00,
2013-08-12 02:30:00,72.6,72.3,29.95,South,184,0.0,0.0,99,0.00,,,0.01,Wunderground v.1.15,2013-08-12 06:30:00,
2013-08-12 02:35:00,72.5,72.2,29.95,South,184,0.0,0.0,99,0.00,,,0.01,Wunderground v.1.15,2013-08-12 06:35:00,
2013-08-12 02:45:00,72.4,72.1,29.94,South,184,0.0,0.0,99,0.00,,,0.01,Wunderground v.1.15,2013-08-12 06:45:00,
2013-08-12 02:50:00,72.3,71.7,29.94,South,184,0.0,0.0,98,0.00,,,0.01,Wunderground v.1.15,2013-08-12 06:50:00,
2013-08-12 02:55:00,72.2,71.6,29.94,South,184,0.0,0.0,98,0.00,,,0.01,Wunderground v.1.15,2013-08-12 06:55:00,
2013-08-12 03:05:00,72.1,71.5,29.94,South,184,0.0,0.0,98,0.00,,,0.01,Wunderground v.1.15,2013-08-12 07:05:00,
2013-08-12 03:10:00,72.0,71.4,29.94,South,184,0.0,0.0,98,0.00,,,0.01,Wunderground v.1.15,2013-08-12 07:10:00,
2013-08-12 03:15:00,71.9,71.3,29.94,South,184,0.0,0.0,98,0.00,,,0.01,Wunderground v.1.15,2013-08-12 07:15:00,
2013-08-12 03:20:00,71.9,71.3,29.94,South,184,0.0,0.0,98,0.00,,,0.01,Wunderground v.1.15,2013-08-12 07:20:00,
2013-08-12 03:25:00,71.8,71.2,29.94,South,184,0.0,0.0,98,0.00,,,0.01,Wunderground v.1.15,2013-08-12 07:25:00,
2013-08-12 03:35:00,71.7,71.1,29.94,South,184,0.0,0.0,98,0.00,,,0.01,Wunderground v.1.15,2013-08-12 07:35:00,
2013-08-12 03:40:00,71.6,71.0,29.94,South,184,0.0,0.0,98,0.00,,,0.01,Wunderground v.1.15,2013-08-12 07:40:00,
2013-08-12 03:45:00,71.5,70.9,29.94,South,184,0.0,0.0,98,0.00,,,0.01,Wunderground v.1.15,2013-08-12 07:45:00,
2013-08-12 03:55:00,71.4,70.8,29.94,South,184,0.0,0.0,98,0.00,,,0.01,Wunderground v.1.15,2013-08-12 07:55:00,
2013-08-12 04:00:00,71.4,70.8,29.95,South,184,0.0,0.0,98,0.00,,,0.01,Wunderground v.1.15,2013-08-12 08:00:00,
2013-08-12 04:05:00,71.3,70.7,29.95,South,184,0.0,0.0,98,0.00,,,0.01,Wunderground v.1.15,2013-08-12 08:05:00,
2013-08-12 04:15:00,71.2,70.6,29.95,South,184,0.0,0.0,98,0.00,,,0.01,Wunderground v.1.15,2013-08-12 08:15:00,
2013-08-12 04:20:00,71.2,70.6,29.95,South,184,0.0,0.0,98,0.00,,,0.01,Wunderground v.1.15,2013-08-12 08:20:00,
2013-08-12 04:25:00,71.1,70.5,29.95,South,184,0.0,0.0,98,0.00,,,0.01,Wunderground v.1.15,2013-08-12 08:25:00,
2013-08-12 04:35:00,71.0,70.4,29.95,South,184,0.0,0.0,98,0.00,,,0.01,Wunderground v.1.15,2013-08-12 08:35:00,
2013-08-12 04:40:00,71.0,70.4,29.95,South,184,0.0,0.0,98,0.00,,,0.01,Wunderground v.1.15,2013-08-12 08:40:00,
2013-08-12 04:45:00,70.9,70.3,29.96,South,184,0.0,0.0,98,0.00,,,0.01,Wunderground v.1.15,2013-08-12 08:45:00,
2013-08-12 04:55:00,70.8,70.2,29.96,South,184,0.0,0.0,98,0.00,,,0.01,Wunderground v.1.15,2013-08-12 08:55:00,
2013-08-12 05:00:00,70.8,70.2,29.96,South,184,0.0,0.0,98,0.00,,,0.01,Wunderground v.1.15,2013-08-12 09:00:00,
2013-08-12 05:05:00,70.7,70.1,29.96,South,184,0.0,0.0,98,0.00,,,0.01,Wunderground v.1.15,2013-08-12 09:05:00,
2013-08-12 05:10:00,70.7,70.1,29.96,South,184,0.0,0.0,98,0.00,,,0.01,Wunderground v.1.15,2013-08-12 09:10:00,
2013-08-12 05:20:00,70.6,70.3,29.96,South,184,0.0,0.0,99,0.00,,,0.01,Wunderground v.1.15,2013-08-12 09:20:00,
2013-08-12 05:25:00,70.6,70.3,29.96,South,184,0.0,0.0,99,0.00,,,0.01,Wunderground v.1.15,2013-08-12 09:25:00,
2013-08-12 05:30:00,70.6,70.3,29.95,South,184,0.0,0.0,99,0.00,,,0.01,Wunderground v.1.15,2013-08-12 09:30:00,
2013-08-12 05:35:00,70.5,70.2,29.95,South,184,0.0,0.0,99,0.00,,,0.01,Wunderground v.1.15,2013-08-12 09:35:00,
2013-08-12 05:40:00,70.5,70.2,29.95,South,184,0.0,0.0,99,0.00,,,0.01,Wunderground v.1.15,2013-08-12 09:40:00,
2013-08-12 05:50:00,70.4,69.8,29.95,South,184,0.0,0.0,98,0.00,,,0.01,Wunderground v.1.15,2013-08-12 09:50:00,
2013-08-12 05:55:00,70.3,69.7,29.95,South,184,0.0,0.0,98,0.00,,,0.01,Wunderground v.1.15,2013-08-12 09:55:00,
2013-08-12 06:00:00,70.2,69.6,29.95,South,184,0.0,0.0,98,0.00,,,0.01,Wunderground v.1.15,2013-08-12 10:00:00,
2013-08-12 06:05:00,70.1,69.5,29.95,South,184,0.0,0.0,98,0.00,,,0.01,Wunderground v.1.15,2013-08-12 10:05:00,
2013-08-12 06:15:00,70.1,69.5,29.97,South,184,0.0,0.0,98,0.00,,,0.01,Wunderground v.1.15,2013-08-12 10:15:00,
2013-08-12 06:20:00,70.1,69.5,29.97,South,184,0.0,0.0,98,0.00,,,0.01,Wunderground v.1.15,2013-08-12 10:20:00,
2013-08-12 06:25:00,70.1,69.8,29.97,South,184,0.0,0.0,99,0.00,,,0.01,Wunderground v.1.15,2013-08-12 10:25:00,
2013-08-12 06:35:00,70.0,69.7,29.97,South,184,0.0,0.0,99,0.00,,,0.01,Wunderground v.1.15,2013-08-12 10:35:00,
2013-08-12 06:40:00,70.0,69.7,29.97,South,184,0.0,0.0,99,0.00,,,0.01,Wunderground v.1.15,2013-08-12 10:40:00,
2013-08-12 06:45:00,70.0,69.7,29.97,South,184,0.0,0.0,99,0.00,,,0.01,Wunderground v.1.15,2013-08-12 10:45:00,
2013-08-12 06:50:00,70.0,69.7,29.97,South,184,0.0,0.0,99,0.00,,,0.01,Wunderground v.1.15,2013-08-12 10:50:00,
2013-08-12 06:55:00,70.0,69.7,29.97,South,184,0.0,0.0,99,0.00,,,0.01,Wunderground v.1.15,2013-08-12 10:55:00,
2013-08-12 07:05:00,70.0,69.7,29.97,South,184,0.0,0.0,99,0.00,,,0.01,Wunderground v.1.15,2013-08-12 11:05:00,
2013-08-12 07:10:00,69.9,69.6,29.97,South,184,0.0,0.0,99,0.00,,,0.01,Wunderground v.1.15,2013-08-12 11:10:00,
2013-08-12 07:19:00,69.9,69.6,29.97,South,184,0.0,0.0,99,0.00,,,0.01,Wunderground v.1.15,2013-08-12 11:19:00,
2013-08-12 07:25:00,69.9,69.6,29.97,South,184,0.0,0.0,99,0.00,,,0.01,Wunderground v.1.15,2013-08-12 11:25:00,
2013-08-12 07:30:00,70.0,69.7,29.97,South,184,0.0,0.0,99,0.00,,,0.01,Wunderground v.1.15,2013-08-12 11:30:00,
2013-08-12 07:35:00,70.1,69.8,29.97,South,184,0.0,0.0,99,0.00,,,0.01,Wunderground v.1.15,2013-08-12 11:35:00,
2013-08-12 07:40:00,70.1,69.8,29.97,South,184,0.0,0.0,99,0.00,,,0.01,Wunderground v.1.15,2013-08-12 11:40:00,
2013-08-12 07:50:00,70.3,70.0,29.98,South,184,0.0,0.0,99,0.00,,,0.01,Wunderground v.1.15,2013-08-12 11:50:00,
2013-08-12 07:55:00,70.4,70.1,29.98,South,184,0.0,0.0,99,0.00,,,0.01,Wunderground v.1.15,2013-08-12 11:55:00,
2013-08-12 08:00:00,70.5,70.2,29.98,South,184,0.0,0.0,99,0.00,,,0.01,Wunderground v.1.15,2013-08-12 12:00:00,
2013-08-12 08:10:00,70.9,70.6,29.98,South,184,0.0,0.0,99,0.00,,,0.01,Wunderground v.1.15,2013-08-12 12:10:00,
2013-08-12 08:15:00,71.1,70.8,29.98,South,184,0.0,0.0,99,0.00,,,0.01,Wunderground v.1.15,2013-08-12 12:15:00,
2013-08-12 08:20:00,71.3,71.0,29.98,South,184,0.0,0.0,99,0.00,,,0.01,Wunderground v.1.15,2013-08-12 12:20:00,
2013-08-12 08:30:00,71.7,71.4,29.98,South,184,0.0,0.0,99,0.00,,,0.01,Wunderground v.1.15,2013-08-12 12:30:00,
2013-08-12 08:40:00,72.3,72.0,29.98,South,184,0.0,0.0,99,0.00,,,0.01,Wunderground v.1.15,2013-08-12 12:40:00,
2013-08-12 08:50:00,72.9,72.6,29.98,South,184,0.0,0.0,99,0.00,,,0.01,Wunderground v.1.15,2013-08-12 12:50:00,
2013-08-12 08:55:00,73.2,72.9,29.98,South,184,0.0,0.0,99,0.00,,,0.01,Wunderground v.1.15,2013-08-12 12:55:00,
2013-08-12 09:00:00,73.5,73.2,29.98,South,184,0.0,0.0,99,0.00,,,0.01,Wunderground v.1.15,2013-08-12 13:00:00,
2013-08-12 09:05:00,73.6,73.3,29.98,South,184,0.0,0.0,99,0.00,,,0.01,Wunderground v.1.15,2013-08-12 13:05:00,
2013-08-12 09:15:00,73.9,73.6,29.98,WSW,255,0.0,0.0,99,0.00,,,0.01,Wunderground v.1.15,2013-08-12 13:15:00,
2013-08-12 09:20:00,74.0,73.7,29.98,WSW,255,0.0,0.0,99,0.00,,,0.01,Wunderground v.1.15,2013-08-12 13:20:00,
2013-08-12 09:25:00,74.0,73.7,29.98,NW,318,0.0,0.0,99,0.00,,,0.01,Wunderground v.1.15,2013-08-12 13:25:00,
2013-08-12 09:30:00,74.0,73.7,29.98,NNW,348,0.0,0.0,99,0.00,,,0.01,Wunderground v.1.15,2013-08-12 13:30:00,
2013-08-12 09:40:00,73.8,73.5,29.98,WNW,285,0.0,2.0,99,0.00,,,0.01,Wunderground v.1.15,2013-08-12 13:40:00,
2013-08-12 09:45:00,73.8,73.5,29.98,WNW,285,0.0,2.0,99,0.00,,,0.01,Wunderground v.1.15,2013-08-12 13:45:00,
2013-08-12 09:50:00,73.8,73.5,29.98,WNW,285,0.0,0.0,99,0.00,,,0.01,Wunderground v.1.15,2013-08-12 13:50:00,
2013-08-12 09:55:00,74.0,73.7,29.98,WNW,285,0.0,0.0,99,0.00,,,0.01,Wunderground v.1.15,2013-08-12 13:55:00,
2013-08-12 10:00:00,74.1,73.8,29.98,WNW,285,0.0,1.0,99,0.00,,,0.01,Wunderground v.1.15,2013-08-12 14:00:00,
2013-08-12 10:10:00,74.4,74.1,29.98,NW,314,0.0,1.0,99,0.00,,,0.01,Wunderground v.1.15,2013-08-12 14:10:00,
2013-08-12 10:15:00,74.6,74.0,29.98,NE,40,0.0,1.0,98,0.00,,,0.01,Wunderground v.1.15,2013-08-12 14:15:00,
2013-08-12 10:20:00,74.8,74.2,29.98,NE,41,0.0,0.0,98,0.00,,,0.01,Wunderground v.1.15,2013-08-12 14:20:00,
2013-08-12 10:30:00,75.1,73.9,29.98,NNW,341,0.0,0.0,96,0.00,,,0.01,Wunderground v.1.15,2013-08-12 14:30:00,
2013-08-12 10:35:00,75.3,73.8,29.98,NW,315,0.0,1.0,95,0.00,,,0.01,Wunderground v.1.15,2013-08-12 14:35:00,
2013-08-12 10:40:00,75.6,74.1,29.98,NW,315,0.0,0.0,95,0.00,,,0.01,Wunderground v.1.15,2013-08-12 14:40:00,
2013-08-12 10:50:00,76.0,73.5,29.98,NNE,17,0.0,0.0,92,0.00,,,0.01,Wunderground v.1.15,2013-08-12 14:50:00,
2013-08-12 10:55:00,76.3,73.8,29.98,NNE,17,0.0,0.0,92,0.00,,,0.01,Wunderground v.1.15,2013-08-12 14:55:00,
2013-08-12 11:00:00,76.7,74.2,29.98,NNE,17,0.0,0.0,92,0.00,,,0.01,Wunderground v.1.15,2013-08-12 15:00:00,
2013-08-12 11:05:00,77.1,74.3,29.98,NNE,17,0.0,0.0,91,0.00,,,0.01,Wunderground v.1.15,2013-08-12 15:05:00,
2013-08-12 11:15:00,78.2,75.0,29.98,NW,310,0.0,0.0,90,0.00,,,0.01,Wunderground v.1.15,2013-08-12 15:15:00,
2013-08-12 11:20:00,78.6,75.4,29.98,NNW,341,0.0,0.0,90,0.00,,,0.01,Wunderground v.1.15,2013-08-12 15:20:00,
2013-08-12 11:25:00,79.3,74.7,29.98,SSW,192,0.0,0.0,86,0.00,,,0.01,Wunderground v.1.15,2013-08-12 15:25:00,
2013-08-12 11:30:00,79.7,74.1,29.98,North,358,1.0,1.0,83,0.00,,,0.01,Wunderground v.1.15,2013-08-12 15:30:00,
2013-08-12 11:35:00,80.4,76.9,29.98,NNW,335,1.0,1.0,89,0.00,,,0.01,Wunderground v.1.15,2013-08-12 15:35:00,
2013-08-12 11:45:00,81.6,77.7,29.97,NNW,335,0.0,0.0,88,0.00,,,0.01,Wunderground v.1.15,2013-08-12 15:45:00,
2013-08-12 11:50:00,82.0,78.1,29.97,NNW,335,0.0,1.0,88,0.00,,,0.01,Wunderground v.1.15,2013-08-12 15:50:00,
2013-08-12 11:55:00,82.2,75.4,29.97,NNW,335,0.0,1.0,80,0.00,,,0.01,Wunderground v.1.15,2013-08-12 15:55:00,
2013-08-12 12:00:00,82.7,77.4,29.97,West,280,0.0,0.0,84,0.00,,,0.01,Wunderground v.1.15,2013-08-12 16:00:00,
2013-08-12 12:05:00,83.4,75.4,29.97,NNE,32,0.0,1.0,77,0.00,,,0.01,Wunderground v.1.15,2013-08-12 16:05:00,
2013-08-12 12:14:00,84.1,76.1,29.96,WNW,288,0.0,1.0,77,0.00,,,0.01,Wunderground v.1.15,2013-08-12 16:14:00,
2013-08-12 12:20:00,84.7,77.1,29.96,NW,312,0.0,0.0,78,0.00,,,0.01,Wunderground v.1.15,2013-08-12 16:20:00,
2013-08-12 12:25:00,84.7,77.1,29.96,NW,315,0.0,0.0,78,0.00,,,0.01,Wunderground v.1.15,2013-08-12 16:25:00,
2013-08-12 12:30:00,84.5,76.9,29.96,NW,325,0.0,0.0,78,0.00,,,0.01,Wunderground v.1.15,2013-08-12 16:30:00,
2013-08-12 12:35:00,84.8,77.2,29.96,NW,324,0.0,0.0,78,0.00,,,0.01,Wunderground v.1.15,2013-08-12 16:35:00,
2013-08-12 12:45:00,85.7,78.0,29.96,SSW,207,0.0,0.0,78,0.00,,,0.01,Wunderground v.1.15,2013-08-12 16:45:00,
2013-08-12 12:50:00,85.8,77.0,29.96,SSW,200,0.0,0.0,75,0.00,,,0.01,Wunderground v.1.15,2013-08-12 16:50:00,
2013-08-12 12:55:00,85.9,77.5,29.96,WSW,255,0.0,0.0,76,0.00,,,0.01,Wunderground v.1.15,2013-08-12 16:55:00,
2013-08-12 13:00:00,86.1,76.8,29.96,WNW,302,0.0,0.0,74,0.00,,,0.01,Wunderground v.1.15,2013-08-12 17:00:00,
2013-08-12 13:10:00,86.9,75.9,29.96,North,1,0.0,2.0,70,0.00,,,0.01,Wunderground v.1.15,2013-08-12 17:10:00,
2013-08-12 13:15:00,87.2,78.3,29.96,North,1,0.0,2.0,75,0.00,,,0.01,Wunderground v.1.15,2013-08-12 17:15:00,
2013-08-12 13:20:00,87.3,76.7,29.96,NW,311,0.0,2.0,71,0.00,,,0.01,Wunderground v.1.15,2013-08-12 17:20:00,
2013-08-12 13:30:00,87.4,75.5,29.95,NE,37,0.0,2.0,68,0.00,,,0.01,Wunderground v.1.15,2013-08-12 17:30:00,
2013-08-12 13:45:00,87.8,76.8,29.94,North,1,0.0,2.0,70,0.00,,,0.01,Wunderground v.1.15,2013-08-12 17:45:00,
2013-08-12 13:55:00,87.7,75.8,29.94,NW,311,0.0,2.0,68,0.00,,,0.01,Wunderground v.1.15,2013-08-12 17:55:00,
2013-08-12 14:00:00,87.9,75.1,29.95,NW,309,0.0,2.0,66,0.00,,,0.01,Wunderground v.1.15,2013-08-12 18:00:00,
2013-08-12 14:05:00,88.3,76.8,29.95,NW,309,0.0,2.0,69,0.00,,,0.01,Wunderground v.1.15,2013-08-12 18:05:00,
2013-08-12 14:10:00,88.5,77.0,29.95,NW,309,0.0,2.0,69,0.00,,,0.01,Wunderground v.1.15,2013-08-12 18:10:00,
2013-08-12 14:20:00,88.3,75.0,29.94,NW,312,0.0,2.0,65,0.00,,,0.01,Wunderground v.1.15,2013-08-12 18:20:00,
2013-08-12 14:25:00,88.0,77.0,29.94,NW,312,0.0,2.0,70,0.00,,,0.01,Wunderground v.1.15,2013-08-12 18:25:00,
2013-08-12 14:35:00,88.0,77.4,29.94,NW,313,0.0,2.0,71,0.00,,,0.01,Wunderground v.1.15,2013-08-12 18:35:00,
2013-08-12 14:40:00,87.7,76.7,29.94,NW,311,0.0,2.0,70,0.00,,,0.01,Wunderground v.1.15,2013-08-12 18:40:00,
2013-08-12 14:45:00,87.8,78.1,29.94,NW,311,0.0,2.0,73,0.00,,,0.01,Wunderground v.1.15,2013-08-12 18:45:00,
2013-08-12 14:50:00,88.3,76.4,29.94,NW,311,0.0,2.0,68,0.00,,,0.01,Wunderground v.1.15,2013-08-12 18:50:00,
2013-08-12 15:00:00,88.3,76.4,29.93,NNW,327,0.0,2.0,68,0.00,,,0.01,Wunderground v.1.15,2013-08-12 19:00:00,
2013-08-12 15:05:00,88.6,74.9,29.93,NNW,327,0.0,2.0,64,0.00,,,0.01,Wunderground v.1.15,2013-08-12 19:05:00,
2013-08-12 15:10:00,88.8,76.9,29.93,NNW,328,0.0,2.0,68,0.00,,,0.01,Wunderground v.1.15,2013-08-12 19:10:00,
2013-08-12 15:15:00,89.1,77.2,29.93,NNW,328,0.0,2.0,68,0.00,,,0.01,Wunderground v.1.15,2013-08-12 19:15:00,
2013-08-12 15:20:00,89.1,77.2,29.93,NNW,328,0.0,2.0,68,0.00,,,0.01,Wunderground v.1.15,2013-08-12 19:20:00,
2013-08-12 15:30:00,88.1,76.6,29.92,SW,230,0.0,2.0,69,0.00,,,0.01,Wunderground v.1.15,2013-08-12 19:30:00,
2013-08-12 15:35:00,87.3,77.2,29.92,SW,230,0.0,2.0,72,0.00,,,0.01,Wunderground v.1.15,2013-08-12 19:35:00,
2013-08-12 15:45:00,86.2,76.1,29.92,West,269,0.0,2.0,72,0.00,,,0.01,Wunderground v.1.15,2013-08-12 19:45:00,
2013-08-12 15:50:00,85.7,75.6,29.92,West,269,0.0,2.0,72,0.00,,,0.01,Wunderground v.1.15,2013-08-12 19:50:00,
2013-08-12 15:55:00,85.2,75.1,29.92,West,269,0.0,2.0,72,0.00,,,0.01,Wunderground v.1.15,2013-08-12 19:55:00,
2013-08-12 16:00:00,85.0,75.8,29.91,West,269,0.0,2.0,74,0.00,,,0.01,Wunderground v.1.15,2013-08-12 20:00:00,
2013-08-12 16:05:00,85.0,75.4,29.91,NNW,348,0.0,2.0,73,0.00,,,0.01,Wunderground v.1.15,2013-08-12 20:05:00,
2013-08-12 16:15:00,85.0,76.2,29.91,NNW,348,0.0,2.0,75,0.00,,,0.01,Wunderground v.1.15,2013-08-12 20:15:00,
2013-08-12 16:20:00,84.5,75.7,29.91,NNW,348,0.0,2.0,75,0.00,,,0.01,Wunderground v.1.15,2013-08-12 20:20:00,
2013-08-12 16:25:00,84.4,77.2,29.91,NNW,348,0.0,2.0,79,0.00,,,0.01,Wunderground v.1.15,2013-08-12 20:25:00,
2013-08-12 16:30:00,84.3,78.2,29.91,NNW,348,0.0,2.0,82,0.00,,,0.01,Wunderground v.1.15,2013-08-12 20:30:00,
2013-08-12 16:40:00,83.9,73.9,29.91,NNW,348,0.0,2.0,72,0.00,,,0.01,Wunderground v.1.15,2013-08-12 20:40:00,
2013-08-12 16:45:00,83.8,76.2,29.91,NNW,348,0.0,2.0,78,0.00,,,0.01,Wunderground v.1.15,2013-08-12 20:45:00,
2013-08-12 16:50:00,83.8,75.8,29.91,NNW,348,0.0,2.0,77,0.00,,,0.01,Wunderground v.1.15,2013-08-12 20:50:00,
2013-08-12 17:00:00,83.3,75.7,29.90,North,0,0.0,2.0,78,0.00,,,0.01,Wunderground v.1.15,2013-08-12 21:00:00,
2013-08-12 17:10:00,83.2,76.4,29.90,North,0,0.0,2.0,80,0.00,,,0.01,Wunderground v.1.15,2013-08-12 21:10:00,
2013-08-12 17:15:00,83.1,74.4,29.90,North,0,0.0,2.0,75,0.00,,,0.01,Wunderground v.1.15,2013-08-12 21:15:00,
2013-08-12 17:20:00,83.1,75.9,29.90,North,0,0.0,2.0,79,0.00,,,0.01,Wunderground v.1.15,2013-08-12 21:20:00,
2013-08-12 19:20:00,79.1,76.2,29.90,North,0,0.0,0.0,91,0.00,,,0.00,Wunderground v.1.15,2013-08-12 23:20:00,
2013-08-12 19:30:00,78.8,76.3,29.89,North,0,0.0,0.0,92,0.00,,,0.00,Wunderground v.1.15,2013-08-12 23:30:00,
2013-08-12 19:35:00,78.7,76.2,29.89,North,0,0.0,0.0,92,0.00,,,0.00,Wunderground v.1.15,2013-08-12 23:35:00,
2013-08-12 19:40:00,78.6,76.1,29.89,North,0,0.0,0.0,92,0.00,,,0.00,Wunderground v.1.15,2013-08-12 23:40:00,
2013-08-12 19:45:00,78.4,75.9,29.90,North,0,0.0,0.0,92,0.00,,,0.00,Wunderground v.1.15,2013-08-12 23:45:00,
2013-08-12 19:50:00,78.2,75.7,29.90,North,0,0.0,0.0,92,0.00,,,0.00,Wunderground v.1.15,2013-08-12 23:50:00,
2013-08-12 20:00:00,77.9,75.7,29.89,North,0,0.0,0.0,93,0.00,,,0.00,Wunderground v.1.15,2013-08-13 00:00:00,
2013-08-12 20:05:00,77.8,75.6,29.89,North,0,0.0,0.0,93,0.00,,,0.00,Wunderground v.1.15,2013-08-13 00:05:00,
2013-08-12 20:10:00,77.7,75.5,29.89,North,0,0.0,0.0,93,0.00,,,0.00,Wunderground v.1.15,2013-08-13 00:10:00,
2013-08-12 20:15:00,77.5,75.3,29.89,North,0,0.0,0.0,93,0.00,,,0.00,Wunderground v.1.15,2013-08-13 00:15:00,
2013-08-12 20:20:00,77.4,75.5,29.89,North,0,0.0,0.0,94,0.00,,,0.00,Wunderground v.1.15,2013-08-13 00:20:00,
2013-08-12 20:30:00,77.3,75.4,29.89,North,0,0.0,0.0,94,0.00,,,0.00,Wunderground v.1.15,2013-08-13 00:30:00,
2013-08-12 20:35:00,77.2,75.3,29.89,North,0,0.0,0.0,94,0.00,,,0.00,Wunderground v.1.15,2013-08-13 00:35:00,
2013-08-12 20:40:00,77.1,75.2,29.89,North,0,0.0,0.0,94,0.00,,,0.00,Wunderground v.1.15,2013-08-13 00:40:00,
2013-08-12 20:45:00,77.1,75.6,29.89,North,0,0.0,0.0,95,0.00,,,0.00,Wunderground v.1.15,2013-08-13 00:45:00,
2013-08-12 20:55:00,76.9,75.4,29.89,North,0,0.0,0.0,95,0.00,,,0.00,Wunderground v.1.15,2013-08-13 00:55:00,
2013-08-12 21:00:00,76.9,75.4,29.89,North,0,0.0,0.0,95,0.00,,,0.00,Wunderground v.1.15,2013-08-13 01:00:00,
2013-08-12 21:05:00,76.8,75.3,29.89,North,0,0.0,0.0,95,0.00,,,0.00,Wunderground v.1.15,2013-08-13 01:05:00,
2013-08-12 21:10:00,76.7,75.2,29.89,North,0,0.0,0.0,95,0.00,,,0.00,Wunderground v.1.15,2013-08-13 01:10:00,
2013-08-12 21:20:00,76.6,75.4,29.89,North,0,0.0,0.0,96,0.00,,,0.00,Wunderground v.1.15,2013-08-13 01:20:00,
2013-08-12 21:25:00,76.6,75.4,29.89,North,0,0.0,0.0,96,0.00,,,0.00,Wunderground v.1.15,2013-08-13 01:25:00,
2013-08-12 21:30:00,76.6,75.4,29.90,North,0,0.0,0.0,96,0.00,,,0.00,Wunderground v.1.15,2013-08-13 01:30:00,
2013-08-12 21:35:00,76.5,75.3,29.90,North,0,0.0,0.0,96,0.00,,,0.00,Wunderground v.1.15,2013-08-13 01:35:00,
2013-08-12 21:40:00,76.4,75.2,29.90,North,0,0.0,0.0,96,0.00,,,0.00,Wunderground v.1.15,2013-08-13 01:40:00,
2013-08-12 21:50:00,76.2,75.0,29.90,North,0,0.0,0.0,96,0.00,,,0.00,Wunderground v.1.15,2013-08-13 01:50:00,
2013-08-12 21:55:00,76.2,75.0,29.90,North,0,0.0,0.0,96,0.00,,,0.00,Wunderground v.1.15,2013-08-13 01:55:00,
2013-08-12 22:00:00,76.1,74.9,29.91,North,0,0.0,0.0,96,0.00,,,0.00,Wunderground v.1.15,2013-08-13 02:00:00,
2013-08-12 22:10:00,76.0,74.8,29.91,North,0,0.0,0.0,96,0.00,,,0.00,Wunderground v.1.15,2013-08-13 02:10:00,
2013-08-12 22:15:00,75.9,74.7,29.90,North,0,0.0,0.0,96,0.00,,,0.00,Wunderground v.1.15,2013-08-13 02:15:00,
2013-08-12 22:20:00,75.9,74.7,29.90,North,0,0.0,0.0,96,0.00,,,0.00,Wunderground v.1.15,2013-08-13 02:20:00,
2013-08-12 22:25:00,75.8,74.9,29.90,North,0,0.0,0.0,97,0.00,,,0.00,Wunderground v.1.15,2013-08-13 02:25:00,
2013-08-12 22:35:00,75.7,74.8,29.89,North,0,0.0,0.0,97,0.00,,,0.00,Wunderground v.1.15,2013-08-13 02:35:00,
2013-08-12 22:40:00,75.7,74.8,29.89,North,0,0.0,0.0,97,0.00,,,0.00,Wunderground v.1.15,2013-08-13 02:40:00,
2013-08-12 22:45:00,75.6,74.7,29.89,North,0,0.0,0.0,97,0.00,,,0.00,Wunderground v.1.15,2013-08-13 02:45:00,
2013-08-12 22:50:00,75.5,74.6,29.89,North,0,0.0,0.0,97,0.00,,,0.00,Wunderground v.1.15,2013-08-13 02:50:00,
2013-08-12 22:55:00,75.5,74.6,29.89,North,0,0.0,0.0,97,0.00,,,0.00,Wunderground v.1.15,2013-08-13 02:55:00,
2013-08-12 23:05:00,75.3,74.4,29.89,North,0,0.0,0.0,97,0.00,,,0.00,Wunderground v.1.15,2013-08-13 03:05:00,
2013-08-12 23:10:00,75.2,74.0,29.89,North,0,0.0,0.0,96,0.00,,,0.00,Wunderground v.1.15,2013-08-13 03:10:00,
2013-08-12 23:15:00,75.1,74.2,29.88,North,0,0.0,0.0,97,0.00,,,0.00,Wunderground v.1.15,2013-08-13 03:15:00,
2013-08-12 23:20:00,75.0,73.8,29.88,North,0,0.0,0.0,96,0.00,,,0.00,Wunderground v.1.15,2013-08-13 03:20:00,
2013-08-12 23:30:00,74.8,73.6,29.88,North,0,0.0,0.0,96,0.00,,,0.00,Wunderground v.1.15,2013-08-13 03:30:00,
2013-08-12 23:35:00,74.6,73.4,29.88,NW,311,0.0,2.0,96,0.00,,,0.00,Wunderground v.1.15,2013-08-13 03:35:00,
2013-08-12 23:40:00,74.3,72.8,29.88,WNW,300,2.0,2.0,95,0.00,,,0.00,Wunderground v.1.15,2013-08-13 03:40:00,
2013-08-12 23:45:00,74.2,72.0,29.91,WNW,284,2.0,2.0,93,0.00,,,0.00,Wunderground v.1.15,2013-08-13 03:45:00,
2013-08-12 23:55:00,73.9,71.4,29.91,NW,307,2.0,2.0,92,0.99,,,0.06,Wunderground v.1.15,2013-08-13 03:55:00,